• In Germany
  • List of Countries
  • For 7 days
  • Water Temperature
  • Satellite Maps
  • Weather Map
  • Weather Widgets
  • user-avatar
    Login

    Hourly Weather Ordino

    Today, 26 July, Wednesday

    Time Temperature Precipitation Wind Pressure Humidity
    00:00 +8°C° 0 mm 3 mps 633 mmHg 85%
    01:00 +7°C° 0 mm 2 mps 633 mmHg 85%
    02:00 +7°C° 0 mm 2 mps 633 mmHg 84%
    03:00 +7°C° 0 mm 2 mps 633 mmHg 83%
    04:00 +7°C° 0 mm 2 mps 633 mmHg 79%
    05:00 +8°C° 0 mm 2 mps 633 mmHg 74%
    06:00 +8°C° 0 mm 2 mps 633 mmHg 70%
    07:00 +12°C° 0 mm 2 mps 634 mmHg 62%
    08:00 +14°C° 0 mm 2 mps 635 mmHg 53%
    09:00 +16°C° 0 mm 2 mps 636 mmHg 45%
    10:00 +18°C° 0 mm 2 mps 637 mmHg 42%
    11:00 +19°C° 0 mm 3 mps 637 mmHg 40%
    12:00 +21°C° 0 mm 3 mps 637 mmHg 37%
    13:00 +21°C° 0 mm 3 mps 637 mmHg 38%
    14:00 +21°C° 0 mm 3 mps 637 mmHg 38%
    15:00 +21°C° 0 mm 3 mps 637 mmHg 39%
    16:00 +20°C° 0 mm 3 mps 636 mmHg 45%
    17:00 +19°C° 0 mm 3 mps 636 mmHg 50%
    18:00 +18°C° 0 mm 3 mps 636 mmHg 56%
    19:00 +16°C° 0 mm 2 mps 635 mmHg 66%
    20:00 +14°C° 0 mm 2 mps 635 mmHg 75%
    21:00 +12°C° 0 mm 2 mps 635 mmHg 85%
    22:00 +12°C° 0 mm 2 mps 635 mmHg 84%
    23:00 +12°C° 0 mm 2 mps 635 mmHg 84%

    Tomorrow, 27 July, Thursday

    Time Temperature Precipitation Wind Pressure Humidity
    00:00 +12°C° 0 mm 1 mps 634 mmHg 84%
    01:00 +12°C° 0 mm 1 mps 634 mmHg 82%
    02:00 +12°C° 0 mm 1 mps 634 mmHg 80%
    03:00 +11°C° 0 mm 1 mps 634 mmHg 79%
    04:00 +12°C° 0 mm 1 mps 634 mmHg 76%
    05:00 +13°C° 0 mm 1 mps 635 mmHg 72%
    06:00 +14°C° 0 mm 1 mps 635 mmHg 69%
    07:00 +16°C° 0 mm 1 mps 636 mmHg 60%
    08:00 +20°C° 0 mm 1 mps 637 mmHg 52%
    09:00 +23°C° 0 mm 1 mps 638 mmHg 43%
    10:00 +24°C° 0 mm 2 mps 638 mmHg 41%
    11:00 +25°C° 0 mm 2 mps 638 mmHg 39%
    12:00 +26°C° 0 mm 2 mps 638 mmHg 37%
    13:00 +26°C° 0 mm 3 mps 638 mmHg 38%
    14:00 +26°C° 0 mm 3 mps 638 mmHg 39%
    15:00 +26°C° 0 mm 3 mps 637 mmHg 40%
    16:00 +25°C° 0 mm 2 mps 637 mmHg 44%
    17:00 +24°C° 0 mm 2 mps 637 mmHg 47%
    18:00 +23°C° 0 mm 2 mps 637 mmHg 50%
    19:00 +21°C° 0 mm 1 mps 636 mmHg 59%
    20:00 +18°C° 0 mm 1 mps 636 mmHg 68%
    21:00 +15°C° 0 mm 1 mps 635 mmHg 77%
    22:00 +15°C° 0 mm 1 mps 635 mmHg 78%
    23:00 +14°C° 0 mm 1 mps 635 mmHg 80%

    Day after tomorrow, 28 July, Friday

    Time Temperature Precipitation Wind Pressure Humidity
    00:00 +14°C° 0 mm 1 mps 635 mmHg 81%
    01:00 +14°C° 0 mm 1 mps 635 mmHg 82%
    02:00 +13°C° 0 mm 1 mps 635 mmHg 82%
    03:00 +13°C° 0 mm 1 mps 635 mmHg 83%
    04:00 +14°C° 0 mm 1 mps 635 mmHg 80%
    05:00 +15°C° 0 mm 1 mps 636 mmHg 77%
    06:00 +15°C° 0 mm 1 mps 636 mmHg 74%
    07:00 +18°C° 0 mm 1 mps 637 mmHg 67%
    08:00 +20°C° 0 mm 2 mps 638 mmHg 60%
    09:00 +23°C° 0 mm 2 mps 639 mmHg 53%
    10:00 +24°C° 0 mm 3 mps 639 mmHg 49%
    11:00 +25°C° 0 mm 3 mps 639 mmHg 46%
    12:00 +26°C° 0 mm 3 mps 640 mmHg 43%
    13:00 +26°C° 0 mm 3 mps 640 mmHg 43%
    14:00 +26°C° 0 mm 3 mps 639 mmHg 44%
    15:00 +26°C° 0 mm 3 mps 639 mmHg 44%
    16:00 +25°C° 0.1 mm 3 mps 639 mmHg 50%
    17:00 +24°C° 0.1 mm 2 mps 638 mmHg 55%
    18:00 +23°C° 0.1 mm 2 mps 638 mmHg 60%
    19:00 +21°C° 0 mm 1 mps 638 mmHg 69%
    20:00 +19°C° 0 mm 1 mps 637 mmHg 78%
    21:00 +15°C° 0 mm 1 mps 637 mmHg 87%
    22:00 +15°C° 0 mm 1 mps 637 mmHg 87%
    23:00 +15°C° 0 mm 1 mps 637 mmHg 87%

    29 July, Saturday

    Time Temperature Precipitation Wind Pressure Humidity
    00:00 +15°C° 0 mm 1 mps 637 mmHg 88%
    01:00 +14°C° 0 mm 1 mps 637 mmHg 87%
    02:00 +14°C° 0 mm 1 mps 636 mmHg 87%
    03:00 +14°C° 0 mm 1 mps 636 mmHg 86%
    04:00 +15°C° 0 mm 1 mps 636 mmHg 84%
    05:00 +15°C° 0 mm 1 mps 637 mmHg 82%
    06:00 +16°C° 0 mm 1 mps 637 mmHg 79%
    07:00 +19°C° 0 mm 1 mps 638 mmHg 69%
    08:00 +20°C° 0 mm 2 mps 639 mmHg 60%
    09:00 +24°C° 0 mm 2 mps 640 mmHg 50%
    10:00 +25°C° 0.1 mm 3 mps 640 mmHg 47%
    11:00 +26°C° 0.1 mm 3 mps 640 mmHg 43%
    12:00 +27°C° 0.1 mm 4 mps 640 mmHg 39%
    13:00 +27°C° 0 mm 4 mps 640 mmHg 39%
    14:00 +27°C° 0 mm 4 mps 640 mmHg 38%
    15:00 +27°C° 0 mm 4 mps 639 mmHg 38%
    16:00 +26°C° 0.1 mm 3 mps 639 mmHg 44%
    17:00 +24°C° 0.1 mm 2 mps 638 mmHg 50%
    18:00 +23°C° 0.1 mm 2 mps 638 mmHg 57%
    19:00 +21°C° 0 mm 1 mps 637 mmHg 63%
    20:00 +19°C° 0 mm 1 mps 637 mmHg 70%
    21:00 +16°C° 0 mm 1 mps 636 mmHg 77%
    22:00 +16°C° 0 mm 1 mps 636 mmHg 77%
    23:00 +15°C° 0 mm 1 mps 636 mmHg 76%

    30 July, Sunday

    Time Temperature Precipitation Wind Pressure Humidity
    00:00 +15°C° 0 mm 1 mps 636 mmHg 76%
    01:00 +15°C° 0 mm 1 mps 636 mmHg 74%
    02:00 +14°C° 0 mm 1 mps 635 mmHg 72%
    03:00 +14°C° 0 mm 1 mps 635 mmHg 70%
    04:00 +15°C° 0 mm 1 mps 635 mmHg 68%
    05:00 +15°C° 0 mm 1 mps 636 mmHg 66%
    06:00 +16°C° 0 mm 1 mps 636 mmHg 63%
    07:00 +20°C° 0 mm 1 mps 637 mmHg 56%
    08:00 +21°C° 0 mm 2 mps 638 mmHg 49%
    09:00 +24°C° 0 mm 2 mps 639 mmHg 42%
    10:00 +26°C° 0 mm 3 mps 639 mmHg 40%
    11:00 +27°C° 0 mm 3 mps 639 mmHg 37%
    12:00 +28°C° 0 mm 4 mps 639 mmHg 34%
    13:00 +28°C° 0 mm 4 mps 639 mmHg 34%
    14:00 +28°C° 0 mm 4 mps 638 mmHg 33%
    15:00 +28°C° 0 mm 4 mps 638 mmHg 33%
    16:00 +27°C° 0 mm 3 mps 638 mmHg 39%
    17:00 +26°C° 0 mm 3 mps 637 mmHg 45%
    18:00 +24°C° 0 mm 2 mps 636 mmHg 51%
    19:00 +21°C° 0 mm 2 mps 636 mmHg 58%
    20:00 +19°C° 0 mm 2 mps 635 mmHg 65%
    21:00 +18°C° 0 mm 1 mps 635 mmHg 72%
    22:00 +16°C° 0 mm 1 mps 635 mmHg 71%
    23:00 +16°C° 0 mm 2 mps 634 mmHg 70%

    31 July, Monday

    Time Temperature Precipitation Wind Pressure Humidity
    00:00 +16°C° 0 mm 2 mps 634 mmHg 69%
    01:00 +16°C° 0 mm 2 mps 634 mmHg 64%
    02:00 +15°C° 0 mm 2 mps 634 mmHg 59%
    03:00 +15°C° 0 mm 2 mps 633 mmHg 54%
    04:00 +16°C° 0 mm 2 mps 634 mmHg 55%
    05:00 +16°C° 0 mm 2 mps 634 mmHg 56%
    06:00 +16°C° 0 mm 2 mps 634 mmHg 57%
    07:00 +19°C° 0 mm 2 mps 635 mmHg 50%
    08:00 +21°C° 0 mm 3 mps 636 mmHg 43%
    09:00 +25°C° 0 mm 4 mps 637 mmHg 37%
    10:00 +26°C° 0 mm 4 mps 637 mmHg 35%
    11:00 +27°C° 0 mm 5 mps 637 mmHg 33%
    12:00 +28°C° 0 mm 5 mps 637 mmHg 31%
    13:00 +28°C° 0 mm 5 mps 636 mmHg 32%
    14:00 +28°C° 0 mm 5 mps 636 mmHg 33%
    15:00 +28°C° 0 mm 5 mps 636 mmHg 34%
    16:00 +26°C° 0.1 mm 4 mps 635 mmHg 40%
    17:00 +25°C° 0.1 mm 4 mps 635 mmHg 46%
    18:00 +22°C° 0.1 mm 3 mps 634 mmHg 52%
    19:00 +21°C° 0 mm 2 mps 634 mmHg 57%
    20:00 +19°C° 0 mm 2 mps 634 mmHg 62%
    21:00 +17°C° 0 mm 2 mps 633 mmHg 67%
    22:00 +18°C° 0 mm 1 mps 633 mmHg 68%
    23:00 +16°C° 0 mm 1 mps 633 mmHg 68%
    Show more